Wind_Speed
12 10 7 3 9 10 13 12 12 10 9 13 15 15 11 13 15 14 15 11 12 15 15 13 13 13 12 13 13 14 15 16 17 17 17 19 15 14 13 12 11 13 14
14 12 9 6 1 4 8 10 11 11 10 10 10 14 14 11 13 13 13 14 15 12 13 13 12 9 11 14 13 12 13 14 16 17 15 14 14 14 14 13 12 11 12
11 12 8 6 5 4 2 5 7 9 12 12 9 8 10 12 11 11 12 13 14 13 12 12 13 13 13 13 12 13 13 13 14 16 11 11 12 12 14 13 12 11 11
11 13 9 8 5 2 2 2 5 8 11 7 9 11 12 13 13 12 12 11 10 11 12 12 11 11 11 10 11 12 13 14 15 12 9 9 10 11 12 13 11 8 9
10 13 10 9 7 5 3 3 4 8 12 6 7 9 11 12 13 13 12 12 11 11 11 11 11 11 10 10 10 10 12 14 14 11 10 8 10 13 11 11 10 7 7
8 10 8 8 6 6 5 5 6 7 9 8 7 8 10 11 12 13 13 13 12 11 11 11 10 10 10 9 9 8 10 11 10 8 8 8 8 11 10 9 9 7 5
8 7 5 5 5 6 6 5 7 8 7 8 8 9 11 11 12 12 12 13 13 12 11 11 10 10 9 9 9 8 8 4 2 6 6 7 9 11 8 8 9 8 5
8 7 5 3 2 2 4 6 6 6 7 7 8 10 11 12 12 12 12 11 11 12 12 11 10 8 7 7 7 6 5 2 5 6 4 4 11 10 9 7 7 7 6
8 7 6 5 3 1 2 3 5 6 7 7 9 10 10 10 11 11 11 11 11 11 11 10 10 9 8 7 5 4 4 4 6 5 5 4 10 9 9 8 7 6 6
6 4 4 3 1 1 2 4 6 7 8 8 9 10 10 10 11 11 11 11 11 10 10 10 9 8 8 7 6 4 3 3 2 3 4 3 6 9 8 8 8 8 7
7 5 3 2 1 2 3 5 6 7 8 8 8 9 9 9 9 8 9 9 9 9 9 10 9 9 9 8 7 6 4 2 3 2 1 3 3 5 7 6 8 9 8
6 5 3 2 2 3 4 5 6 7 8 8 8 8 8 7 7 8 8 8 7 7 8 8 8 8 9 8 7 6 6 3 3 4 2 2 6 4 4 5 4 6 8
8 6 5 4 3 3 5 6 6 7 7 7 7 6 6 5 4 4 5 6 7 6 6 5 5 5 6 7 7 5 3 2 2 6 6 7 7 6 5 4 2 4 2
8 7 6 5 4 5 6 7 7 8 7 7 6 5 4 4 5 5 6 6 7 7 6 6 6 5 4 4 4 2 3 2 2 5 7 11 10 11 8 4 10 12 9
10 8 6 5 5 6 6 7 7 7 7 6 5 5 5 4 4 5 7 7 9 9 8 8 7 7 6 4 4 2 1 4 4 7 9 11 11 11 9 11 11 10 10
10 8 7 7 6 6 6 6 6 6 5 4 4 4 5 6 6 6 7 8 8 9 10 10 10 8 7 6 5 3 2 2 2 5 7 9 11 11 12 14 11 8 9
12 11 9 7 7 7 6 6 6 6 5 4 4 4 4 5 6 7 8 9 10 10 10 10 10 9 8 6 6 4 3 4 5 4 4 5 6 8 9 10 11 10 11
12 11 9 9 9 9 8 7 7 6 5 4 4 4 3 4 4 5 7 8 9 10 10 10 11 11 9 7 7 4 4 5 8 8 8 8 7 6 7 7 7 7 8
13 12 11 11 10 10 9 9 8 7 6 5 4 3 3 3 3 4 6 7 8 9 9 10 11 13 11 7 7 4 6 9 11 11 11 11 10 9 8 7 6 6 9
14 12 11 11 10 9 9 8 8 7 6 5 4 4 3 2 2 3 4 5 7 8 9 10 11 14 14 9 7 7 6 5 13 13 15 14 13 12 11 9 8 8 7
15 13 12 12 11 10 9 9 9 8 7 6 5 5 4 3 2 1 2 4 5 7 9 10 10 11 13 12 7 5 8 6 10 8 12 16 15 15 14 14 12 12 12
14 13 14 13 12 12 12 11 11 10 8 7 7 6 6 5 3 2 1 1 3 5 7 8 9 11 12 13 9 6 1 5 10 8 11 16 16 16 14 15 15 16 17
13 13 14 14 13 12 12 11 12 12 11 11 10 8 7 6 5 4 3 1 1 3 5 7 8 8 10 9 11 8 2 2 7 5 11 15 17 18 16 14 15 16 18
13 15 18 15 14 12 13 14 13 13 13 14 11 10 9 8 6 5 4 2 1 1 3 4 6 7 7 8 8 9 6 7 6 5 10 13 16 17 16 15 17 16 18
14 18 19 16 15 14 14 14 13 14 15 12 11 11 10 9 8 8 7 5 3 2 2 4 4 5 5 6 7 7 7 7 9 8 12 21 17 17 15 16 17 16 19
11 15 17 16 16 15 15 15 15 15 14 14 13 13 13 12 10 9 8 7 6 5 3 3 4 5 4 5 6 6 7 7 10 10 15 21 23 22 15 15 17 18 22
Wind_Direction
184 177 163 106 36 37 43 43 40 39 40 52 46 45 46 42 46 43 38 41 49 50 49 44 47 46 46 46 52 52 56 59 60 54 50 43 39 50 57 52 64 63 48
183 181 175 114 91 8 23 23 26 17 7 6 18 29 38 40 42 42 41 40 31 27 33 39 40 34 30 39 49 54 58 60 62 55 40 38 32 41 46 48 56 64 64
182 183 180 145 211 259 26 16 16 13 8 3 350 1 15 27 29 25 28 37 35 32 25 19 19 18 25 29 35 46 53 62 58 48 44 44 28 40 41 44 52 58 64
181 188 190 169 199 241 293 349 1 347 353 357 356 356 6 6 7 4 3 10 16 19 22 22 20 23 22 24 31 42 50 59 58 45 36 53 37 45 43 45 47 56 58
187 192 204 200 206 237 258 298 338 342 346 348 340 347 353 353 355 356 354 351 352 357 3 5 12 20 23 24 29 41 55 58 47 41 33 31 37 39 41 43 47 53 57
181 190 216 205 239 249 255 272 306 325 332 343 334 338 340 341 341 343 345 349 349 345 346 349 356 6 16 25 33 44 62 72 70 51 17 24 34 31 33 38 42 46 60
164 177 193 199 236 239 257 280 289 301 315 323 325 327 329 332 332 332 334 332 331 331 333 334 332 346 0 15 29 46 75 82 38 42 18 20 46 26 22 27 30 37 39
165 162 163 156 189 238 274 272 282 301 308 316 317 319 320 322 326 328 329 327 326 323 322 323 329 320 334 355 11 31 54 11 15 38 16 47 54 28 16 24 27 26 24
181 178 172 170 186 210 280 307 311 305 308 314 317 317 318 322 322 323 323 323 322 318 317 317 318 319 318 320 346 4 20 6 15 24 59 62 59 34 28 22 24 21 25
190 194 199 210 235 324 334 333 325 320 318 322 318 314 315 316 316 316 314 311 311 309 310 311 309 308 306 310 302 320 359 332 326 357 65 70 67 43 34 37 34 22 12
194 201 204 210 246 301 317 318 327 328 331 332 328 322 319 318 316 316 316 316 312 306 300 297 297 299 299 297 292 290 290 285 257 287 85 60 41 43 32 33 40 39 28
202 205 216 249 280 302 309 314 322 325 324 326 325 320 319 326 332 339 341 339 337 330 322 307 296 288 283 282 280 272 273 262 248 257 243 186 109 111 103 88 61 68 53
217 221 229 236 250 280 299 312 317 316 319 324 324 320 320 336 350 357 1 357 357 351 343 337 321 304 299 286 280 280 282 252 269 266 257 227 224 194 178 169 168 194 116
217 221 230 249 280 302 310 315 316 319 323 327 331 340 342 3 10 22 25 23 23 21 17 16 8 5 354 337 326 310 262 231 203 259 270 256 252 250 259 247 246 245 247
226 229 238 255 272 282 292 298 310 318 324 331 340 347 2 16 30 36 37 31 29 30 32 32 26 26 25 22 27 36 297 243 229 260 271 281 283 272 269 265 274 286 292
233 235 241 248 259 271 285 297 308 308 315 324 337 354 6 15 18 34 42 40 36 38 35 33 31 28 29 29 54 57 21 315 293 260 280 296 295 294 283 278 288 284 289
240 243 248 256 267 277 290 302 309 309 314 316 331 0 14 22 23 32 38 38 36 41 40 40 38 30 28 29 62 50 29 11 19 24 7 347 335 320 310 306 302 296 294
250 253 260 267 275 282 289 298 300 298 300 308 318 336 354 15 30 40 40 41 42 43 41 40 43 35 28 30 58 31 39 28 35 30 30 16 8 359 339 326 323 324 312
254 258 261 267 273 279 286 291 294 296 296 299 303 307 326 354 17 31 46 46 49 47 46 44 47 42 32 34 59 18 59 49 41 35 32 27 24 18 13 7 348 321 308
252 253 253 256 261 271 277 281 281 280 283 284 283 285 299 324 360 23 44 50 50 52 50 48 41 46 37 38 59 43 22 42 31 32 35 33 33 27 24 24 14 5 352
251 251 250 251 252 255 256 257 261 264 263 269 269 272 271 269 285 3 33 47 46 47 45 43 42 42 45 40 53 54 19 13 3 20 34 32 35 35 31 30 27 25 17
265 258 255 254 253 257 258 259 259 256 251 242 237 237 241 244 241 232 214 85 59 53 50 41 38 35 35 38 45 90 105 311 331 354 14 22 25 29 31 33 32 31 26
277 265 260 261 257 254 260 258 253 251 246 246 245 241 242 243 246 243 240 244 32 41 39 34 29 30 28 33 38 46 55 357 349 328 347 12 15 23 26 26 25 28 23
281 268 264 264 261 262 264 264 260 252 249 253 252 253 255 260 262 265 256 242 262 1 18 16 16 16 20 20 24 29 46 17 11 326 335 354 5 14 16 17 18 21 16
269 269 278 277 265 261 264 267 267 256 257 265 263 261 260 258 258 259 260 259 254 292 335 345 352 356 359 4 8 13 8 1 350 338 329 338 348 3 1 4 4 5 7
276 283 284 269 260 257 262 268 266 263 265 269 269 265 262 257 252 256 259 258 254 242 239 274 301 311 325 337 339 344 345 343 337 342 333 336 337 342 346 350 352 350 354
Height
1572 1573 1574 1575 1575 1574 1574 1574 1573 1572 1572 1570 1570 1569 1568 1567 1566 1564 1564 1562 1562 1560 1561 1562 1560 1558 1558 1557 1556 1556 1556 1555 1555 1555 1554 1553 1553 1552 1550 1550 1550 1548 1548
1570 1572 1573 1573 1574 1575 1575 1575 1574 1574 1573 1572 1570 1569 1569 1568 1568 1567 1567 1565 1563 1562 1562 1562 1560 1561 1560 1558 1558 1558 1558 1558 1557 1558 1557 1555 1554 1553 1552 1551 1551 1550 1550
1570 1572 1572 1572 1574 1575 1576 1576 1576 1575 1574 1573 1572 1571 1570 1569 1568 1568 1567 1566 1565 1564 1564 1564 1563 1562 1561 1560 1560 1560 1560 1560 1559 1559 1558 1557 1556 1555 1553 1552 1551 1552 1552
1569 1571 1572 1572 1574 1576 1577 1576 1577 1576 1576 1575 1574 1572 1571 1571 1569 1569 1568 1567 1566 1566 1566 1565 1564 1563 1562 1562 1561 1561 1561 1561 1561 1560 1559 1558 1556 1555 1555 1554 1553 1554 1553
1569 1570 1572 1572 1574 1575 1576 1577 1577 1577 1576 1575 1575 1574 1573 1571 1570 1569 1569 1568 1568 1567 1566 1565 1565 1564 1563 1563 1562 1561 1562 1562 1562 1561 1559 1559 1558 1556 1555 1555 1554 1554 1555
1568 1570 1572 1572 1574 1575 1576 1576 1576 1576 1576 1575 1575 1573 1572 1571 1570 1570 1568 1568 1567 1567 1566 1567 1566 1565 1565 1564 1563 1562 1562 1563 1560 1560 1560 1560 1559 1557 1557 1556 1555 1555 1555
1568 1570 1571 1571 1573 1574 1574 1575 1576 1576 1575 1574 1574 1573 1572 1571 1571 1569 1568 1567 1567 1567 1566 1566 1566 1566 1565 1564 1564 1563 1563 1562 1561 1560 1560 1560 1559 1559 1558 1557 1556 1555 1556
1568 1570 1571 1571 1573 1572 1573 1574 1574 1575 1574 1574 1573 1573 1572 1571 1570 1569 1568 1568 1567 1566 1566 1566 1565 1564 1564 1564 1564 1563 1563 1563 1561 1560 1560 1559 1559 1559 1558 1557 1556 1556 1556
1567 1569 1570 1571 1572 1572 1573 1573 1574 1574 1574 1574 1574 1573 1572 1571 1570 1569 1568 1567 1566 1566 1565 1564 1564 1563 1562 1562 1563 1563 1563 1562 1560 1559 1559 1559 1559 1559 1558 1557 1556 1555 1555
1567 1569 1570 1571 1572 1572 1573 1573 1574 1574 1574 1573 1573 1572 1572 1571 1570 1569 1568 1567 1566 1565 1564 1562 1562 1562 1561 1561 1561 1561 1562 1561 1558 1558 1559 1559 1560 1559 1558 1557 1557 1556 1555
1566 1568 1569 1569 1570 1571 1571 1572 1573 1573 1573 1572 1572 1571 1571 1570 1569 1568 1567 1566 1565 1564 1562 1561 1560 1559 1559 1560 1560 1560 1560 1560 1557 1557 1558 1560 1560 1559 1558 1557 1557 1556 1555
1566 1567 1568 1569 1569 1570 1570 1571 1571 1571 1571 1571 1570 1570 1568 1568 1567 1566 1565 1564 1563 1562 1561 1560 1559 1558 1558 1558 1558 1558 1558 1558 1555 1556 1557 1558 1557 1556 1555 1555 1556 1556 1555
1566 1567 1567 1568 1569 1569 1570 1570 1570 1570 1570 1569 1569 1569 1568 1566 1566 1566 1565 1564 1562 1561 1560 1559 1558 1557 1556 1556 1556 1556 1556 1556 1553 1553 1554 1554 1554 1554 1555 1556 1554 1554 1553
1565 1565 1566 1567 1568 1567 1568 1569 1569 1569 1569 1568 1568 1567 1568 1566 1566 1565 1564 1564 1563 1561 1559 1558 1557 1556 1554 1554 1554 1554 1553 1553 1551 1552 1551 1550 1553 1553 1555 1554 1551 1553 1553
1563 1564 1566 1567 1567 1567 1568 1570 1569 1568 1568 1569 1568 1569 1568 1566 1565 1564 1563 1564 1561 1561 1558 1557 1556 1554 1553 1553 1553 1552 1551 1551 1551 1551 1548 1550 1550 1550 1552 1550 1550 1552 1553
1562 1563 1565 1566 1566 1567 1568 1569 1568 1568 1568 1568 1568 1568 1568 1566 1566 1565 1564 1563 1563 1561 1558 1557 1555 1555 1553 1552 1552 1552 1550 1549 1550 1549 1550 1550 1549 1548 1549 1547 1548 1549 1549
1561 1562 1564 1564 1565 1567 1567 1567 1567 1568 1567 1568 1568 1566 1566 1566 1566 1566 1565 1563 1562 1561 1560 1558 1557 1555 1554 1554 1551 1551 1550 1549 1548 1548 1549 1549 1547 1547 1547 1546 1547 1546 1545
1559 1560 1562 1563 1564 1566 1566 1567 1567 1569 1568 1567 1567 1567 1568 1567 1566 1565 1564 1563 1564 1561 1559 1559 1557 1555 1553 1553 1551 1551 1551 1550 1549 1547 1548 1548 1548 1546 1546 1544 1544 1544 1541
1558 1560 1562 1563 1564 1565 1565 1566 1566 1566 1567 1566 1567 1567 1568 1567 1566 1565 1564 1564 1562 1561 1560 1559 1558 1556 1555 1553 1552 1553 1552 1551 1550 1549 1549 1547 1546 1547 1545 1543 1542 1542 1540
1556 1558 1560 1561 1563 1564 1564 1564 1564 1565 1565 1565 1566 1566 1566 1566 1565 1565 1564 1563 1563 1562 1561 1559 1557 1557 1556 1554 1553 1553 1552 1553 1552 1551 1549 1548 1546 1546 1546 1543 1542 1539 1539
1556 1558 1559 1560 1561 1562 1562 1563 1563 1563 1563 1564 1565 1564 1565 1566 1564 1562 1562 1562 1562 1561 1560 1560 1559 1558 1556 1554 1554 1554 1554 1554 1554 1552 1552 1550 1548 1546 1545 1543 1541 1538 1538
1556 1557 1557 1558 1560 1561 1561 1562 1562 1562 1562 1563 1563 1563 1564 1563 1561 1560 1560 1560 1560 1560 1560 1559 1558 1557 1557 1556 1556 1555 1555 1555 1555 1552 1551 1551 1548 1546 1545 1543 1541 1539 1537
1555 1556 1556 1558 1559 1560 1560 1561 1561 1561 1561 1561 1561 1561 1560 1559 1559 1559 1559 1558 1558 1558 1559 1558 1558 1558 1557 1557 1557 1555 1553 1554 1553 1552 1551 1550 1548 1545 1544 1543 1542 1539 1538
1556 1555 1555 1558 1560 1561 1561 1561 1561 1561 1560 1559 1559 1559 1559 1559 1559 1559 1558 1557 1556 1557 1557 1558 1558 1558 1557 1557 1556 1555 1555 1554 1552 1551 1550 1548 1547 1544 1543 1542 1541 1538 1538
1555 1554 1555 1556 1558 1560 1560 1561 1561 1560 1559 1559 1558 1558 1558 1557 1557 1557 1557 1556 1555 1555 1556 1556 1557 1557 1557 1557 1556 1555 1554 1552 1552 1550 1545 1544 1544 1544 1542 1541 1539 1537 1535
1554 1553 1553 1554 1554 1556 1557 1559 1560 1559 1559 1559 1558 1557 1557 1555 1555 1555 1555 1554 1553 1552 1552 1552 1554 1554 1554 1554 1554 1553 1553 1552 1550 1548 1545 1542 1541 1541 1541 1539 1538 1536 1533